Location: Minneapolis
(45.0000°N, 93.0000°W)
Time: 00:07:37
(UTC-05:00)

Vanguard 3 - All Passes

Search period start: 24 June 2018 00:00
Search period end: 04 July 2018 00:00
Orbit: 508 x 3264 km, 33.3° (Epoch: 23 June)

Date Brightness Start Highest point End Pass type
(mag) Time Alt. Az. Time Alt. Az. Time Alt. Az.
24 Jun - 03:15:03 10° SSW 03:18:28 19° SSE 03:23:01 10° ESE visible
24 Jun - 05:23:53 10° WSW 05:29:20 34° S 05:38:11 10° ESE daylight
24 Jun - 07:34:26 10° WSW 07:41:31 30° SSW 07:52:35 10° SE daylight
24 Jun - 09:47:58 10° WSW 09:54:37 17° SSW 10:03:03 10° S daylight
25 Jun - 04:11:28 10° SW 04:15:47 28° SSE 04:22:16 10° ESE visible
25 Jun - 06:21:19 10° WSW 06:27:16 32° S 06:36:51 10° SE daylight
25 Jun - 08:33:02 10° WSW 08:39:52 22° SSW 08:49:26 10° SSE daylight
26 Jun - 02:59:29 10° SSW 03:02:35 18° SSE 03:06:36 10° ESE visible
26 Jun - 05:08:32 10° WSW 05:13:26 31° S 05:21:05 10° ESE daylight
26 Jun - 07:19:15 10° WSW 07:25:24 25° SSW 07:34:39 10° SSE daylight
26 Jun - 09:34:17 10° SW 09:38:16 12° SSW 09:42:53 10° S daylight
27 Jun - 03:56:03 10° SW 03:59:57 25° S 04:05:34 10° ESE visible
27 Jun - 06:06:04 10° WSW 06:11:19 27° S 06:19:23 10° SE daylight
27 Jun - 08:18:22 10° WSW 08:23:41 17° SSW 08:30:40 10° S daylight
28 Jun - 02:43:56 10° SSW 02:46:45 18° SSE 02:50:17 10° ESE visible
28 Jun - 04:53:15 10° WSW 04:57:35 26° S 05:04:04 10° SE daylight
28 Jun - 07:04:17 10° WSW 07:09:24 20° SSW 07:16:37 10° SSE daylight
29 Jun - 01:33:15 10° SSE 01:33:42 10° SSE 01:34:08 10° SSE visible
29 Jun - 03:40:41 10° SW 03:44:11 23° S 03:48:57 10° ESE visible
29 Jun - 05:50:57 10° WSW 05:55:27 22° S 06:01:55 10° SE daylight
29 Jun - 08:04:40 10° SW 08:07:37 12° SSW 08:11:02 10° S daylight
30 Jun - 02:28:23 10° SSW 02:30:59 17° SSE 02:34:05 10° SE visible
30 Jun - 04:38:02 10° SW 04:41:49 22° S 04:47:05 10° SE visible
30 Jun - 06:49:41 10° SW 06:53:28 15° SSW 06:58:18 10° SSE daylight
01 Jul - 01:16:48 10° S 01:17:53 11° SSE 01:18:59 10° SE night (unlit)
01 Jul - 03:25:21 10° SW 03:28:26 20° S 03:32:25 10° SE visible
01 Jul - 05:36:03 10° SW 05:39:37 17° S 05:44:22 10° SSE daylight
02 Jul - 02:12:49 10° SSW 02:15:15 16° S 02:17:59 10° SE visible
02 Jul - 04:22:56 10° SW 04:26:04 18° S 04:30:07 10° SE visible
02 Jul - 06:36:44 10° SSW 06:37:36 10° SSW 06:38:29 10° SSW daylight
03 Jul - 01:00:35 10° SSW 01:02:05 12° SSE 01:03:37 10° SE night (unlit)
03 Jul - 03:10:03 10° SW 03:12:44 17° S 03:15:56 10° SE visible
03 Jul - 05:21:37 10° SW 05:23:50 12° SSW 05:26:27 10° S daylight
